User: anonymous   Login
Location: Valdosta
(30.8330°N, 83.2790°W)
Time: 23:30:38
(UTC-05:00)
Language:

Uribyol 2 - Orbit

View from above orbital plane
View from above orbital plane
View from above satellite
View from above satellite

Ground track
Ground track

The orbit data is extracted from the following two-line orbital elements,

1 22828U 93061F   17052.89276882 -.00000000  00000-0  17368-4 0  9996
2 22828  98.7820  16.0710 0008783 267.8728  92.1449 14.30623370189454
Epoch (UTC): 21 February 2017 21:25:35
Eccentricity: 0.0008783
inclination: 98.7820°
perigee height: 783 km
apogee height: 796 km
right ascension of ascending node: 16.0710°
argument of perigee: 267.8728°
revolutions per day: 14.30623370
mean anomaly at epoch: 92.1449°
orbit number at epoch: 18945

The dashed part of the orbit path shows where the satellite is in the earth's shadow,  

DLR